Total_Precipitation_Accumulation
0.72 0.43 0.49 0.46 0.41 0.43 0.41 0.46 0.51 0.51 0.48 0.45 0.42 0.39 0.37 0.41 0.45 0.53 0.57 0.63 0.79 0.95 1.03 1.09 1.18 1.17 1.18 1.20 1.28 1.42 1.38 1.40 1.59 1.74 1.76 1.67 1.75 1.87 1.80 1.61 1.52 1.28 1.25
0.55 0.40 0.50 0.45 0.42 0.43 0.44 0.47 0.50 0.54 0.53 0.52 0.49 0.45 0.44 0.46 0.48 0.59 0.65 0.71 0.88 0.98 1.00 1.11 1.21 1.18 1.09 1.08 1.19 1.32 1.25 1.29 1.63 1.91 1.99 1.78 1.89 2.10 2.07 1.84 1.88 1.68 1.28
0.40 0.39 0.48 0.45 0.42 0.47 0.48 0.52 0.53 0.58 0.57 0.56 0.56 0.53 0.52 0.57 0.60 0.63 0.75 0.84 0.98 1.08 1.10 1.17 1.28 1.25 1.13 1.04 1.17 1.29 1.26 1.32 1.79 2.19 2.48 2.28 2.17 2.34 2.18 1.97 1.82 1.62 1.27
0.49 0.59 0.55 0.44 0.43 0.48 0.49 0.55 0.57 0.60 0.65 0.67 0.69 0.65 0.60 0.64 0.70 0.72 0.80 0.89 1.04 1.25 1.24 1.18 1.26 1.29 1.11 1.06 1.22 1.26 1.27 1.43 2.02 2.49 2.75 2.55 2.58 2.81 2.43 2.09 1.90 1.66 1.45
0.57 0.68 0.62 0.50 0.48 0.48 0.55 0.55 0.59 0.64 0.71 0.76 0.81 0.88 0.82 0.69 0.71 0.75 0.85 0.95 1.08 1.27 1.50 1.38 1.31 1.38 1.17 1.11 1.22 1.25 1.32 1.61 2.16 2.41 2.64 2.93 3.28 3.33 2.57 2.18 2.04 1.86 1.66
0.57 0.62 0.60 0.58 0.56 0.55 0.59 0.61 0.69 0.77 0.81 0.81 0.87 0.94 1.02 0.87 0.84 0.86 1.01 1.10 1.18 1.27 1.44 1.67 1.56 1.62 1.47 1.23 1.23 1.25 1.47 1.85 2.03 2.11 2.81 3.22 3.24 3.17 2.62 2.28 2.14 2.18 1.98
0.63 0.65 0.75 0.79 0.83 0.83 0.79 0.79 0.85 0.89 0.94 0.96 0.93 0.94 1.07 1.03 0.98 1.06 1.18 1.26 1.35 1.39 1.47 1.56 1.55 1.71 1.53 1.30 1.27 1.32 1.56 1.84 1.82 2.11 2.76 3.23 3.10 2.98 2.80 2.58 2.41 2.38 2.18
0.78 0.85 0.97 1.11 1.20 1.12 1.04 0.99 1.00 0.98 0.97 1.01 1.11 1.07 1.09 1.17 1.17 1.14 1.22 1.37 1.55 1.63 1.64 1.65 1.65 1.64 1.57 1.47 1.39 1.40 1.53 1.63 1.58 1.95 2.50 2.81 2.76 2.68 2.83 2.66 2.53 2.43 2.29
1.19 1.26 1.23 1.15 1.14 1.16 1.15 1.10 1.15 1.14 1.10 1.11 1.21 1.27 1.19 1.22 1.28 1.32 1.43 1.50 1.55 1.57 1.58 1.69 1.90 1.75 1.54 1.50 1.51 1.53 1.62 1.75 1.76 1.99 2.32 2.72 2.68 2.85 3.02 2.77 2.47 2.44 2.46
2.06 2.29 1.77 1.39 1.23 1.11 1.13 1.22 1.30 1.44 1.39 1.29 1.31 1.41 1.43 1.44 1.48 1.54 1.58 1.61 1.59 1.62 1.60 1.77 1.97 1.95 1.77 1.63 1.59 1.61 1.72 1.71 1.51 1.88 2.44 2.57 2.70 3.08 3.35 3.12 2.79 2.61 2.53
2.77 2.98 2.24 1.74 1.51 1.41 1.40 1.42 1.51 1.66 1.76 1.62 1.51 1.54 1.68 1.82 2.05 2.06 1.84 1.86 1.77 1.83 1.85 1.91 2.05 2.05 2.07 2.06 1.98 1.92 1.84 1.58 1.79 2.05 2.27 2.53 2.90 3.37 3.55 3.38 3.03 2.81 2.69
2.82 2.64 2.38 2.17 1.87 1.71 1.66 1.88 1.97 1.89 1.93 1.78 1.93 1.85 2.01 2.51 2.69 2.37 2.30 2.22 2.09 2.16 2.27 2.29 2.30 2.27 2.14 2.15 2.37 2.38 1.94 1.83 2.00 2.19 2.31 2.49 2.83 3.36 3.60 3.43 3.18 3.08 3.01
3.30 2.82 2.55 2.31 2.22 2.10 2.19 2.41 2.50 2.56 2.58 2.37 2.48 2.44 2.53 2.70 2.66 2.65 2.63 2.52 2.53 2.52 2.74 2.85 2.66 2.39 2.24 2.26 2.34 2.39 2.26 2.22 2.18 2.24 2.38 2.65 2.91 3.37 3.67 3.54 3.27 3.22 3.26
3.50 3.37 2.83 2.65 2.75 2.97 3.00 2.92 2.85 2.84 2.93 2.85 2.87 2.69 2.81 2.92 2.93 2.85 2.87 2.78 2.85 2.77 2.99 3.04 3.00 2.85 2.67 2.49 2.42 2.54 2.64 2.64 2.46 2.49 2.76 2.91 2.90 3.23 3.67 3.70 3.55 3.45 3.50
3.55 3.45 3.13 3.28 3.39 3.48 3.51 3.47 3.21 3.12 3.34 3.35 3.31 3.20 3.21 3.11 2.98 2.99 2.95 2.95 2.85 2.98 3.11 3.19 3.05 2.93 2.86 2.70 2.50 2.51 2.69 2.76 2.85 2.87 2.95 3.03 2.81 2.97 3.49 3.89 3.97 4.00 3.97
3.50 3.74 3.68 3.77 3.66 3.58 3.65 3.83 3.86 3.54 3.66 3.87 3.96 3.81 3.62 3.46 3.37 3.36 3.42 3.37 3.12 3.15 3.29 3.43 3.31 3.19 2.95 2.82 2.65 2.65 2.70 2.64 2.75 2.94 3.00 3.07 2.93 2.86 3.30 3.84 4.21 4.40 4.40
3.72 3.80 3.83 3.72 3.90 4.01 4.03 4.01 4.06 3.95 3.90 4.04 4.24 4.26 3.92 3.62 3.72 3.75 3.88 3.85 3.52 3.47 3.58 3.70 3.68 3.56 3.18 2.90 2.85 2.92 2.91 2.90 2.76 2.76 2.99 3.08 2.96 2.99 3.22 3.42 3.74 4.04 4.26
3.73 4.07 4.01 3.62 4.03 4.24 4.20 4.14 3.93 3.98 4.24 4.43 4.45 4.56 4.25 3.87 3.78 3.97 3.88 3.71 3.67 3.78 4.03 4.20 4.10 4.02 3.81 3.59 3.42 3.14 2.92 2.88 2.79 2.90 2.89 2.94 3.23 3.14 3.15 3.03 3.21 3.57 3.87
3.91 4.40 4.23 3.98 4.14 4.26 4.30 4.35 4.09 4.15 4.49 4.64 4.78 4.79 4.35 3.93 3.87 4.15 4.18 4.15 4.05 4.10 4.23 4.05 4.20 4.11 4.26 4.09 3.61 3.33 3.07 2.92 2.87 2.86 2.92 2.89 3.02 3.16 3.14 2.95 3.00 3.28 3.53
4.22 4.95 4.57 4.18 4.14 4.42 4.42 4.26 4.22 4.35 4.66 4.97 5.05 4.87 4.55 4.38 4.23 4.42 4.36 4.42 4.45 4.54 4.44 4.39 4.44 4.23 4.14 4.10 3.71 3.49 3.24 2.94 2.89 2.81 2.69 2.75 2.82 2.71 2.79 2.81 2.91 2.85 3.13
4.15 4.64 4.64 4.43 4.48 4.57 4.59 4.35 4.48 4.67 4.97 5.26 5.22 5.13 5.02 4.88 4.81 4.90 4.92 4.89 4.73 4.64 4.53 4.44 4.44 4.36 4.07 3.93 3.97 3.61 3.11 2.68 2.44 2.34 2.37 2.48 2.47 2.41 2.52 2.75 2.92 2.85 2.76
3.86 4.12 4.43 4.59 4.62 4.40 4.76 5.04 5.30 5.63 5.67 5.95 6.22 6.25 6.05 5.74 5.55 5.41 5.40 5.07 4.75 4.62 4.49 4.38 4.32 4.18 3.84 3.73 3.80 3.82 3.29 2.80 2.26 1.95 2.05 2.08 2.16 2.31 2.37 2.30 2.47 2.56 2.51
3.65 4.01 4.35 4.70 4.83 4.76 5.23 5.75 6.19 6.57 6.48 6.53 6.51 6.47 6.39 5.96 5.63 5.42 5.20 5.00 4.78 4.60 4.44 4.42 4.33 4.20 3.91 3.71 3.69 3.93 3.69 3.16 2.55 2.18 1.96 1.99 2.11 2.25 2.22 2.16 2.17 2.17 2.22
3.38 3.80 4.12 4.55 4.98 5.28 5.68 6.16 6.69 7.01 7.23 7.06 6.74 6.43 6.05 5.58 5.24 4.87 4.70 4.74 4.62 4.41 4.22 3.93 3.81 3.82 3.77 3.60 3.54 3.41 3.31 3.15 2.93 2.58 2.27 2.22 2.27 2.26 2.18 2.14 2.19 2.28 2.29
3.15 3.51 3.94 4.30 4.71 5.34 6.09 6.65 7.17 7.51 7.52 6.98 6.38 5.80 5.34 4.95 4.60 4.35 4.26 4.37 4.29 4.04 3.86 3.60 3.42 3.26 3.26 3.32 3.34 3.26 3.10 2.95 2.72 2.57 2.39 2.28 2.25 2.19 2.11 2.08 2.13 2.24 2.31
2.90 3.16 3.67 4.23 4.58 5.12 5.88 6.48 6.84 7.02 6.96 6.52 5.87 5.31 4.87 4.43 4.05 3.73 3.51 3.44 3.36 3.20 3.11 3.08 3.05 3.01 3.00 3.05 3.07 3.03 2.92 2.82 2.73 2.68 2.51 2.27 2.23 2.26 2.16 2.02 1.93 1.95 2.00